カタログに戻る

SL-8 R/B

運用中LEO
NORAD 3577·ROCKET BODY·🇷🇺 Russia

打ち上げ Nov 30, 1968 から Plesetsk Cosmodrome

Loading…

次のパス (今後24時間)

TLE

最新Source: Space-Track

元期: Sep 14, 2026, 22:50 UTC

1 03577U 68106B   26257.95155905  .00000170  00000-0  47439-3 0  9992
2 03577  74.0509 212.5151 0034767 180.4948 239.6637 13.19143121781230

AllMySatでSL-8 R/Bをリアルタイム追跡

Download on the App Store